User: anonymous
Location: Terra Rouge Observatory
(46.0000°N, 62.7500°W)
Time: 07:28:11
(UTC-03:00)
Language:

NOSS 3-1 (A) - Orbit

View from above orbital plane
View from above orbital plane
View from above satellite
View from above satellite

Ground track
Ground track

The orbit data is extracted from the following two-line orbital elements,

1 26905U 01040A   14109.86111897 0.00000000  00000-0  00000-0 0    06
2 26905  63.4260  98.2849 0270000 357.5451   2.4549 13.40687477    05
Epoch (UTC): 19 April 2014 20:40:00
Eccentricity: 0.0270000
inclination: 63.4260°
perigee height: 904 km
apogee height: 1309 km
right ascension of ascending node: 98.2849°
argument of perigee: 357.5451°
revolutions per day: 13.40687477
mean anomaly at epoch: 2.4549°
orbit number at epoch: 0

The dashed part of the orbit path shows where the satellite is in the earth's shadow,  

DLR